Location: Newark
(34.9500°N, 139.9667°E)
Time: 06:17:37
(UTC+00:00)

Transit 2A - Pass Details

Date: 08 December 2019
Orbit: 601 x 958 km, 66.7° (Epoch: 26 January)

Event Time Altitude Azimuth Distance (km) Brightness Sun altitude
Rises 08:21:07 0° 317° (NW) 2,901 9.3 -10.7°
Reaches altitude 10° 08:23:40 10° 303° (WNW) 2,026 8.7 -11.2°
Maximum altitude 08:27:17 24° 250° (WSW) 1,384 8.4 -11.9°
Drops below altitude 10° 08:31:08 10° 198° (SSW) 2,157 8.9 -12.6°
Sets 08:33:57 0° 184° (S) 3,138 9.5 -13.2°
